Location: Asheville, NC
(35.6000°N, 82.5500°W)
Time: 21:51:11
(UTC-04:00)

Vanguard 1 - Visible Passes

Search period start: 25 April 2018 00:00
Search period end: 05 May 2018 00:00
Orbit: 650 x 3833 km, 34.2° (Epoch: 24 April)

Date Brightness Start Highest point End Pass type
(mag) Time Alt. Az. Time Alt. Az. Time Alt. Az.
25 Apr 10.7 04:12:30 48° S 04:12:30 48° S 04:21:46 10° SE visible
25 Apr 10.9 21:28:55 10° SSW 21:32:37 19° SSE 21:32:37 19° SSE visible
26 Apr 10.9 04:32:51 39° SSW 04:32:56 39° SSW 04:42:35 10° SE visible
26 Apr 10.5 21:48:59 10° SW 21:53:04 26° S 21:53:04 26° S visible
27 Apr 12.7 02:40:30 10° ESE 02:40:30 10° ESE 02:40:32 10° ESE visible
27 Apr 11.2 04:53:16 30° SSW 04:54:01 30° SSW 05:03:02 10° SSE visible
27 Apr 10.2 22:09:29 10° SW 22:13:29 34° S 22:13:29 34° S visible
28 Apr 12.6 03:00:59 12° ESE 03:00:59 12° ESE 03:01:37 10° ESE visible
28 Apr 11.6 05:13:45 21° SW 05:15:11 22° SSW 05:22:59 10° SSE visible
28 Apr 10.2 22:30:15 10° WSW 22:33:50 36° SW 22:33:50 36° SW visible
29 Apr 12.5 03:21:32 13° SE 03:21:32 13° SE 03:22:30 10° SE visible
29 Apr 12.0 05:34:19 14° SW 05:36:24 16° SSW 05:42:07 10° S visible
29 Apr 10.6 22:51:11 10° WSW 22:54:07 31° WSW 22:54:07 31° WSW visible
30 Apr 12.5 03:42:08 13° SE 03:42:08 13° SE 03:43:05 10° SE visible
30 Apr 10.5 20:50:52 10° SW 20:57:13 34° SSE 21:01:36 10° E visible
30 Apr 11.1 23:12:12 10° WSW 23:14:21 24° WSW 23:14:21 24° WSW visible
01 May 12.6 04:02:46 11° SSE 04:02:46 11° SSE 04:03:14 10° SSE visible
01 May 10.0 21:11:35 10° SW 21:18:10 45° SSE 21:21:47 16° E visible
01 May 11.5 23:33:15 10° W 23:34:31 17° W 23:34:31 17° W visible
02 May 9.7 21:32:33 10° WSW 21:39:06 58° SSE 21:41:54 24° E visible
02 May 12.0 23:54:18 10° W 23:54:38 12° W 23:54:38 12° W visible
03 May 9.4 21:53:39 10° WSW 22:00:02 69° S 22:01:58 35° E visible
04 May 9.3 22:14:50 10° W 22:20:59 76° S 22:21:59 55° ESE visible
